Tracking 33446 objects as of 10-Mar-2026
HD Live streaming from Space Station
objects crossing your sky now

STARLINK-34625

Track STARLINK-34625 now!
10-day predictions
STARLINK-34625 is classified as:


NORAD ID: 66154
Int'l Code: 2025-240J
Perigee: 481.5 km
Apogee: 483.2 km
Inclination: 53.2 °
Period: 94.1 minutes
Semi major axis: 6853 km
RCS: Unknown
Launch date: October 25, 2025
Source: United States (US)
Launch site: AIR FORCE EASTERN TEST RANGE (AFETR)
Your satellite tracking list
Your tracking list is empty




NASA's NSSDC Master Catalog

Two Line Element Set (TLE):
1 66154U 25240J   26069.12420037  .00018897  00000-0  64852-3 0  9998
2 66154  53.1596  60.8881 0001215  87.1646 272.9494 15.30200310 22102
Source of the keplerian elements: AFSPC